Location: Columbus
(29.5618°N, 96.6770°W)
Time: 12:38:16
(UTC-05:00)

Daily predictions for brighter satellites

Satellite Brightness Start Highest point End
(mag) Time Altitude Azimuth Time Altitude Azimuth Time Altitude Azimuth
Cosmos 1814 Rocket 4.1 19:34:36 10° SSW 19:39:47 83° WNW 19:44:56 10° NNE
Cosmos 304 Rocket 3.9 19:35:40 10° S 19:40:17 51° ESE 19:44:56 10° NNE
COSMOS 2406 3.7 19:35:13 10° S 19:40:23 37° ESE 19:45:36 10° NE
USA 234 3.4 19:35:54 10° SE 19:42:22 66° NE 19:48:50 10° NW
ISS -2.8 19:40:15 10° S 19:43:07 29° SE 19:46:00 10° ENE
Cosmos 1825 Rocket 3.6 19:39:58 10° N 19:44:21 64° E 19:48:46 10° SSE
Cosmos 1898 Rocket 3.5 19:39:37 10° N 19:44:45 64° ENE 19:49:51 10° SSE
Meteor 2-5 Rocket 4.4 19:39:36 10° NNE 19:44:52 35° ENE 19:50:00 10° SE
SL-08 ROCKET BODY 4.5 19:40:26 10° SSE 19:46:06 53° E 19:51:50 10° NNE
Cosmos 2369 Rocket 2.6 19:40:32 10° NNW 19:46:08 70° WSW 19:51:40 10° S
ATLAS 3B CENTAUR R/B 4.1 19:39:23 10° WSW 19:46:53 67° SSE 20:08:40 10° E
Cosmos 990 Rocket 4.4 19:42:46 10° N 19:47:35 39° ENE 19:52:22 10° SE
Cosmos 1707 3.3 19:44:03 10° NNE 19:47:42 36° E 19:51:19 10° SSE
Tiangong 2 3.8 19:50:50 10° W 19:53:05 18° SW 19:55:19 10° S
Cosmos 1378 3.6 19:51:40 10° N 19:55:14 39° E 19:58:46 10° SSE
ALOS 2.3 19:55:02 10° SSE 19:59:36 60° ENE 20:04:12 10° N
ATLAS CENTAUR R/B 3.9 19:55:06 10° NNW 20:06:10 35° NNE 20:09:50 16° E
USA 81 4.0 20:06:00 10° N 20:11:15 68° E 20:16:29 10° S
OE (NEXTSAT) 4.4 20:08:18 10° NW 20:11:49 80° SW 20:14:36 15° SE
FREGAT/IRIS 2.9 20:09:05 10° SSE 20:11:58 43° ENE 20:14:51 10° N
Cosmos 2150 Rocket 4.0 20:06:46 10° NNW 20:12:09 74° ENE 20:17:33 10° SSE
Cosmos 841 Rocket 4.1 20:10:11 10° SSW 20:15:14 58° WNW 20:20:18 10° N
Cosmos 1805 4.1 20:12:51 10° SSE 20:16:09 27° E 20:19:27 10° NNE
Cosmos 1758 Rocket 4.0 20:13:00 10° NNW 20:17:27 67° W 20:21:54 10° S
Cosmos 1340 Rocket 3.7 20:15:53 10° NNW 20:19:52 54° W 20:23:51 10° S
SL-27 R/B 3.3 20:19:33 10° SSE 20:22:40 29° E 20:23:47 24° ENE
USA 229 DEB 4.0 20:15:58 10° NNW 20:23:12 78° WSW 20:30:33 10° SSE
CZ-2D R/B 4.5 20:23:20 22° ENE 20:23:20 22° ENE 20:26:12 10° NNE
USA 229 4.0 20:16:04 10° NNW 20:23:18 79° WSW 20:30:38 10° SSE
Cosmos 2181 Rocket 4.2 20:18:08 10° N 20:24:16 72° W 20:30:20 10° S
Cosmos 1937 Rocket 3.8 20:20:41 10° NNW 20:25:57 70° WSW 20:31:08 10° S
NOSS 3-1 (A) 4.5 20:20:23 10° NNW 20:27:51 45° ENE 20:33:24 20° ESE
Cosmos 2154 Rocket 4.3 20:22:45 10° SSE 20:28:29 41° E 20:34:17 10° NNE
Cosmos 2074 Rocket 4.0 20:24:23 10° S 20:30:36 88° W 20:36:50 10° N
HJ-1C 3.5 20:29:18 27° SE 20:30:47 50° ENE 20:34:02 10° N
Yuri Rocket 3.0 20:26:52 10° WSW 20:31:39 69° S 20:33:26 33° E
Cosmos 540 Rocket 3.4 20:26:46 10° SSW 20:31:52 88° WNW 20:36:59 10° NNE
Centaur AC-116 3.5 20:27:28 10° W 20:35:21 49° SSW 20:36:35 31° SE
NOSS 3-1 (C) 4.1 20:28:39 10° NNW 20:36:32 67° ENE 20:43:39 16° SE
Cosmos 1943 Rocket 3.6 20:34:12 10° NW 20:39:20 38° WSW 20:44:30 10° S
Cosmos 2341 Rocket 4.5 20:35:09 10° SSE 20:40:41 35° E 20:46:14 10° NNE
SJ-6B 2.8 20:41:20 10° S 20:45:23 85° WSW 20:49:22 10° NNW
Meteor 1-24 Rocket 3.7 20:40:28 10° N 20:46:23 82° E 20:52:05 10° S
Resurs 01 Rocket 2.0 20:51:54 42° ENE 20:51:54 42° ENE 20:55:39 10° N
FALCON 9 R/B 2.3 20:50:16 10° WNW 20:53:20 47° N 20:55:16 33° ENE
CZ-3 Stage 3 2.6 20:51:53 10° W 20:52:27 19° W 20:52:27 19° W
Cosmos 1812 Rocket 3.5 20:50:36 10° S 20:55:01 85° W 20:59:31 10° N
H-2A R/B 3.7 20:53:24 10° S 20:56:57 46° W 21:00:33 10° NNW
Cosmos 1356 Rocket 4.3 20:55:20 10° NNW 20:59:30 50° W 21:03:40 10° S
GP-B 3.0 20:56:48 10° N 21:01:04 68° ENE 21:01:04 68° ENE
BREEZE-M DEB (TANK) 3.9 21:00:06 10° SW 21:01:43 25° WSW 21:01:43 25° WSW
Spot 2 Rocket 3.6 21:05:05 53° ENE 21:05:05 53° ENE 21:09:39 10° N
Nadezhda 3 Rocket 3.9 21:00:11 10° N 21:06:23 60° E 21:07:52 47° SE
Cosmos 2285 Rocket 4.0 21:02:36 10° S 21:08:48 53° ESE 21:15:02 10° NNE
Meteor 2-8 Rocket 4.4 21:03:44 10° N 21:09:51 84° W 21:15:15 14° S
OAO 3 Rocket 4.2 21:08:17 10° SW 21:11:28 33° S 21:11:28 33° S
Cosmos 292 Rocket 3.9 21:09:38 10° SSW 21:14:27 74° WNW 21:19:19 10° NNE
ISS -1.2 21:17:18 10° W 21:19:36 18° NW 21:19:45 17° NW
Cosmos 1295 Rocket 4.2 21:21:26 68° SE 21:22:02 74° E 21:28:07 10° N
Mugunghwa Rocket 4.5 21:15:24 10° SW 21:22:04 46° SSE 21:22:04 46° SSE
MOS 1-B Rocket 4.0 21:33:42 61° S 21:34:50 80° WSW 21:40:39 10° NNW
Envisat 3.6 21:38:12 53° NW 21:38:12 53° NW 21:42:10 10° NNW
Cosmos 1125 Rocket 3.9 21:32:15 10° NNW 21:37:25 59° W 21:37:25 59° W
GEOS 3 Rocket 4.5 21:53:10 48° W 21:53:10 48° W 21:57:31 10° SW
ATLAS 2AS CENTAUR R/B 4.1 22:02:33 10° NNW 22:07:04 30° NNE 22:07:04 30° NNE
Milstar 3 Cent rocket 4.2 22:09:38 10° W 22:11:02 19° W 22:11:02 19° W
